FENGYUN 1C DEB

Satellite information

Favourite Embed

Satellite Type and Status

DEBRISIN ORBIT

Key statistics

Satellite FENGYUN 1C DEB at a glance.

Uptime

9610

Days in orbit

Revolutions

≈ 14.2

Per day

Orbit

SSO

Sun Synchronous Orbit

Inclination

99.0

Latest

Satellite identification and parameters

Extended collection of information and parameters for FENGYUN 1C DEB.

Object identification

Identified? True

Debris? True

Object name: FENGYUN 1C DEB

International designator: 1999-025ASB

Object number (NORAD): 30717

Object ID (CCSDS): 30717

Country: PEOPLES REPUBLIC OF CHINA (PRC)

Current information (Y/N): Y

RCS size: SMALL

Orbital parameters

Period: 101.43 minutes

Inclination: 99.0241 deg

SMA: 7204.534 km

Apoapsis: 862.374 km

Periapsis: 790.423 km

RAAN: 311.4615 deg

Eccentricy: 0.00499346

Argument of periapsis: 193.8529 deg

Mean anomaly: 166.128 deg

Mean motion: 14.19691354 rev/day

Mean motion (dot): 0.00004054 rev/day2

B* drag term: 0.001914036 1/REarth

Two-line elements (TLE)

Creation date: Aug. 31, 2025, 2:26 a.m.

Reference frame: TEME

Reference center: EARTH

Epoch: Aug. 30, 2025, 5:07 p.m. UTC

TLE line 0: 0 FENGYUN 1C DEB

TLE line 1: 1 30717U 99025ASB 25242.71322173 .00004054 00000-0 19140-2 0 9994

TLE line 2: 2 30717 99.0241 311.4615 0049935 193.8529 166.1280 14.19691354950600

Live tracking on map

Real-time ground track for satellite FENGYUN 1C DEB.

In-orbit conjunctions

A list of the most updated potential collisions computed for object FENGYUN 1C DEB.

Target Orbit TCA Probability of collision Miss distance Type
METEOR 1-15 LEO 2025-04-09 08:20:04 0.0001392572 438.0 (m) PAYLOAD
SL-16 DEB LEO 2024-11-15 03:09:44 0.0001945663 241.0 (m) DEBRIS
IRIDIUM 33 DEB LEO 2024-09-25 08:29:03 0.0001659314 236.0 (m) DEBRIS

Associated space launch

Chinese polar orbiting meteorological satellite

FENGYUN 1C DEB was lifted into orbit during the mission ‘Long March 4B | Feng Yun 1C’, on board a Long March 4B space rocket.

The launch took place on May 10, 1999, 1:33 a.m. from Launch Complex 7.

For more information about the launch, click the button.

Launch to space Long March 4B | Feng Yun 1C
Long March 4B | Feng Yun 1C

Agency: N/A

Status: Launch Successful

Launch date: May 10, 1999, 1:33 a.m. UTC

Rocket: Long March 4B

Launch pad: Launch Complex 7

Location: Taiyuan Satellite Launch Center, People's Republic of China

...

Latest news about this satellite

There are no fresh news available about this satellite. Check back as we update our databases every day.


Newsletter sign-up

Weekly statistics, charts and insights to help you stay on top of the space industry.